Narooma Real Estate, NSW, 2546 Eurobodalla

Thinking about buying in Narooma? Now could not be a better time, with a whopping 2962 properties either residential or commercial there's certainly plenty to choose from.

The average property price for this area is $596,000 with prices in this suburb ranging from $28,000 to $2,700,000.

Distance to the coast is 0 Km.

Narooma Real Estate Market Outlook

In Narooma there has been a history of lower than average prices and demand, offering opportunities for investors or first home owners, especially in the context of the growth in working from home. Low average incomes in Narooma is reflected in smaller and lower quality accommodation. Over time this may change providsing long-term returns but in the short to medium term, prices are likely to be less than state averages. Low average earnings from people in Narooma leads to lower quality housing which also negatively impacts the provision of facilities. As a consequence this area is often seen as less desirable, with lower quality of housing and slower price growth. Low population density implies low demand and limits housing choices and price increases. Could be a good entry point for first home buyers needing to somehow get into the market. With very low industrial sector presence in Narooma the focus is on lifestyle, driving specific demand around facilities, services, and open space. Most people are employed in service sectors with a higher than average proportion being able to work from home. This may incease demand over the medium term.

About

For Sale

LJ Hooker 37 DOROTHY DR, NAROOMA, NSW, 2546 3 2 1 Please Call
LJ Hooker 17 GRAHAM ST, NAROOMA, NSW, 2546 2 1 $1,500,000
LJ Hooker 27 BARKER PDE, NAROOMA, NSW, 2546 3 2 1 $985,000
LJ Hooker 83 FLYING FOX RD, NAROOMA, NSW, 2546 4 3 3 Sold

More

Local Schools


Narooma Public School

Narooma High School

(While the above schools are located with the suburb of Narooma there may also be nearby schools whose catchments cover this suburb)

Local Crime Stats


Average Local Climate by month


(mm)
RAIN
Min (°C)
TEMP
Max (°C)
TEMP
Min (%)
HUMIDITY
Max (%)
HUMIDITY
(m/sec)
WIND
(MJ/sq m)
SOLAR
Jan1.314.130.728.787.93.625.2
Feb2.413.427.936.391.43.621.2
Mar3.211.324.442.894.53.317.0
Apr1.37.421.342.894.92.713.9
May1.12.416.447.796.92.511.0
Jun1.81.413.355.897.42.88.9
Jul1.10.612.754.495.93.89.5
Aug1.40.614.045.394.73.612.6
Sept1.83.117.841.093.83.617.0
Oct1.86.221.436.993.03.520.7
Nov2.19.525.430.989.14.325.0
Dec1.912.428.627.987.83.626.6

source: Australian Government Bureau of Meteorology

Recently Sold

10-05-2022 $537,500 28 SEAEAGLE CL NAROOMA 2546
06-05-2022 $895,000 3 DOROTHY DR NAROOMA 2546
03-05-2022 $550,000 342 OLD HWY NAROOMA 2546
02-05-2022 $699,000 211 OLD HWY NAROOMA 2546
27-04-2022 $974,000 7 / 2 BURRAWANG ST NAROOMA 2546
22-04-2022 $543,000 22 / 11 PAYNE ST NAROOMA 2546
19-04-2022 $456,000 2 / 116 WAGONGA ST NAROOMA 2546
08-04-2022 $550,000 11 RILEY ST NAROOMA 2546
06-04-2022 $840,000 13 / 4 PRINCES HWY NAROOMA 2546
04-04-2022 $1,850,000 101 OLD HWY NAROOMA 2546
29-03-2022 $3,275,000 135 WAGONGA ST NAROOMA 2546
25-03-2022 $635,000 75 / 11 PAYNE ST NAROOMA 2546
25-03-2022 $1,630,000 35 RIVERSIDE DR NAROOMA 2546
15-03-2022 $1,300,000 3 CORUNNA ST NAROOMA 2546
14-03-2022 $641,000 3 / 19 COLLINS CRES NAROOMA 2546
14-03-2022 $670,000 3 / 4 MONTAGUE ST NAROOMA 2546
11-03-2022 $652,500 2 / 19 COLLINS CRES NAROOMA 2546
10-03-2022 $995,001 11 HYLAND AVE NAROOMA 2546
08-03-2022 $572,000 8 / 11 PAYNE ST NAROOMA 2546
01-03-2022 $775,000 60 GLASSHOUSE ROCKS RD NAROOMA 2546
14-02-2022 $520,000 9 / 11 PAYNE ST NAROOMA 2546
03-02-2022 $1,485,000 16 ALBERT PARK LANE NAROOMA 2546
02-02-2022 $960,000 82 PRINCES HWY NAROOMA 2546
02-02-2022 $740,000 1 ANGLE PL NAROOMA 2546
31-01-2022 $1,255,000 30 FORSTERS BAY RD NAROOMA 2546
28-01-2022 $185,000 6 / 95 CAMPBELL ST NAROOMA 2546
24-01-2022 $140,000 5 / 20 CANTY ST NAROOMA 2546
21-01-2022 $2,365,000 121 CAMPBELL ST NAROOMA 2546
21-01-2022 $2,365,000 123 WAGONGA ST NAROOMA 2546
14-01-2022 $1,250,000 4 / 97 CAMPBELL ST NAROOMA 2546
14-01-2022 $375,000 22 / 16 MCMILLAN RD NAROOMA 2546
10-01-2022 $650,000 2 / 1 GEM CRES NAROOMA 2546
22-12-2021 $850,000 18 CANTY ST NAROOMA 2546
21-12-2021 $799,000 13 TAYLOR ST NAROOMA 2546
21-12-2021 $1,310,000 14 THE LOOP NAROOMA 2546
20-12-2021 $2,170,000 129 WAGONGA ST NAROOMA 2546
17-12-2021 $731,000 12 DOROTHY DR NAROOMA 2546
17-12-2021 $1,375,000 235 OLD HWY NAROOMA 2546
16-12-2021 $750,000 17 HYLAND AVE NAROOMA 2546
16-12-2021 $340,000 32 / 16 MCMILLAN RD NAROOMA 2546
16-12-2021 $810,000 2 / 4 PRINCES HWY NAROOMA 2546
10-12-2021 $2,100,000 233 WAGONGA SCENIC DR NAROOMA 2546
10-12-2021 $2,035,000 5 HOPKINS PL NAROOMA 2546
09-12-2021 $2,050,000 2 / 89 CAMPBELL ST NAROOMA 2546
08-12-2021 $470,000 2 / 217 PRINCES HWY NAROOMA 2546
03-12-2021 $595,000 2 / 4 MONTAGUE ST NAROOMA 2546
16-11-2021 $675,000 5 / 113 CAMPBELL ST NAROOMA 2546
15-11-2021 $549,500 51 / 11 PAYNE ST NAROOMA 2546
05-11-2021 $645,000 9 NICHELSEN ST NAROOMA 2546
04-11-2021 $735,000 24 OLD HWY NAROOMA 2546

Residz covers 12m+ Australian properties and brings together a wealth of data to give you a better understanding of an area. From crime and schools to bush fire, flood risk and more. Begin your search for properties for sale or learn more about where you currently reside. Residz is an exciting next-generation Real Estate platform getting better by the day!